This is the latest recevied weather packets stored in our database for station/object HB9TJM-8. If no packets are shown the sender has not sent any weather packets the latest 10 day(s).
| Time | Temp. | Humidity | Pressure | Rain* | Wind** | Luminosity | Snow |
|---|---|---|---|---|---|---|---|
| 1777010566 | 9.44° C | 45% | 1021 hPa | 0 mm | - | 86 W/m² | - |
| 1777009951 | 10° C | 42% | 1020.9 hPa | 0 mm | - | 64 W/m² | - |
| 1777009643 | 10° C | 43% | 1021.1 hPa | 0 mm | - | 58 W/m² | - |
| 1777009336 | 9.44° C | 46% | 1021.3 hPa | 0 mm | - | 52 W/m² | - |
| 1777009029 | 10° C | 43% | 1021.2 hPa | 0 mm | - | 48 W/m² | - |
| 1777008721 | 10° C | 44% | 1020.9 hPa | 0 mm | - | 45 W/m² | - |
| 1777008414 | 9.44° C | 48% | 1021.1 hPa | 0 mm | - | 42 W/m² | - |
| 1777008107 | 9.44° C | 43% | 1020.9 hPa | 0 mm | - | 38 W/m² | - |
| 1777007801 | 8.89° C | 45% | 1021 hPa | 0 mm | - | 34 W/m² | - |
| 1777007493 | 8.89° C | 44% | 1021.1 hPa | 0 mm | - | 30 W/m² | - |
| 1777007492 | 8.89° C | 44% | 1021.1 hPa | 0 mm | - | 30 W/m² | - |
| 1777007185 | 8.89° C | 44% | 1021.3 hPa | 0 mm | - | 26 W/m² | - |
| 1777006878 | 8.89° C | 44% | 1021.4 hPa | 0 mm | - | 22 W/m² | - |
| 1777006570 | 8.33° C | 44% | 1020.9 hPa | 0 mm | - | 18 W/m² | - |
| 1777006262 | 8.33° C | 44% | 1021.2 hPa | 0 mm | - | 15 W/m² | - |
| 1777006262 | 8.33° C | 44% | 1021.2 hPa | 0 mm | - | 15 W/m² | - |
| 1777005955 | 8.33° C | 44% | 1021.1 hPa | 0 mm | - | 11 W/m² | - |
| 1777005647 | 7.78° C | 44% | 1020.7 hPa | 0 mm | - | 8 W/m² | - |
| 1777005340 | 7.78° C | 46% | 1021.1 hPa | 0 mm | - | 5 W/m² | - |
| 1777005032 | 7.78° C | 46% | 1020.8 hPa | 0 mm | - | 3 W/m² | - |
| 1777004724 | 7.22° C | 46% | 1021.1 hPa | 0 mm | - | 1 W/m² | - |
| 1777004417 | 7.22° C | 47% | 1020.9 hPa | 0 mm | - | 0 W/m² | - |
| 1777004110 | 7.22° C | 46% | 1020.8 hPa | 0 mm | - | 0 W/m² | - |
| 1777003802 | 7.22° C | 46% | 1020.6 hPa | 0 mm | - | 0 W/m² | - |
| 1777003495 | 7.78° C | 46% | 1021 hPa | 0 mm | - | 0 W/m² | - |
* Rain latest hour (hover to see other rain measurements)
** Current wind speed in m/s (hover to see current wind gust speed)